[[{"header":{"parameterUnit":"m.s-1","parameterCategory":1,"la1":30.2991,"la2":30.254,"lo1":-89.0895,"lo2":-89.0444,"dy":0.0017,"dx":0.0017,"nx":28,"ny":28,"refTime":"2025-08-17T21:00:00:Z","depth":0,"parameterNumber":2,"parameterNumberName":"U-component_of_WINDS"},"data":[0,0,0,0,0,0,0,0,0,0,0,0,0,0,0,0,0,0,0,0,0,0,0,0,0,0,0,0,0,0,0,0,0,0,0,0,0,0,0,0,0,0,0,0,0,0,0,0,0,0,0,0,0,0,0,0,0,0,0.2149,0.2149,0,0.2144,0.2144,0.2144,0.2137,0.2137,0.2137,0.2137,0.2131,0.2131,0.2131,0,0,0,0,0,0,0,0,0,0,0,0,0,0.2152,0.2152,0.2149,0.2149,0.2148,0.2144,0.2144,0.2144,0.2137,0.2137,0.2137,0.2137,0.2131,0.2131,0.2131,0,0,0,0,0,0,0,0,0,0,0,0,0,0.2149,0.2152,0.2149,0.2145,0.2144,0.2144,0.2144,0.2144,0.2137,0.2137,0.2137,0.2137,0.2131,0.2131,0.2131,0.2133,0,0,0.213,0.213,0,0,0,0,0,0,0,0,0.2149,0.2149,0.2145,0.2145,0.2144,0.2141,0.2143,0.214,0.2137,0.214,0.2137,0.2137,0.2134,0.2134,0.2133,0.2133,0.2133,0.213,0.213,0.213,0.213,0,0,0,0,0,0,0,0.2149,0.2149,0.2147,0.2145,0.2145,0.2143,0.2142,0.2142,0.2138,0.214,0.2139,0.2139,0.2134,0.2133,0.2133,0.2133,0.213,0.213,0.213,0.213,0.2135,0.2135,0,0,0,0,0,0,0.215,0.2149,0.2147,0.2146,0.2147,0.2143,0.2142,0.2142,0.2138,0.2137,0.2139,0.2138,0.2134,0.2133,0.2133,0.2136,0.213,0.213,0.213,0.2135,0.2135,0.2136,0,0,0,0,0,0,0.215,0.215,0.2147,0.2148,0.2147,0.2143,0.2143,0.2142,0.2142,0.2137,0.2137,0.2139,0.2133,0.2133,0.2134,0.2136,0.213,0.213,0.2135,0.2135,0.2135,0.2142,0,0,0,0,0,0,0.2151,0.215,0.2151,0.2148,0.2147,0.2148,0.2143,0.2142,0.2142,0.2141,0.2137,0.2137,0.2133,0.2134,0.2133,0.2136,0.213,0.2135,0.2135,0.2135,0.2142,0.2143,0.2144,0,0,0,0,0,0.2151,0.2153,0.2151,0.2151,0.2148,0.2148,0.2148,0.2144,0.2142,0.2143,0.214,0.2137,0.2136,0.2134,0.2134,0.2136,0.2135,0.2135,0.2135,0.2141,0.2143,0.2144,0,0,0,0,0,0,0.2156,0.2152,0.215,0.2152,0.215,0.2147,0.2148,0.2145,0.2144,0.2144,0.2139,0.2138,0.2139,0.2138,0.2136,0.2138,0.2135,0.2135,0.2139,0.214,0.2141,0.2142,0.213,0,0,0,0,0,0.2158,0.2158,0.2154,0.2156,0.2155,0.2152,0.2151,0.2149,0.2147,0.2146,0.2144,0.2142,0.2141,0.2141,0.214,0.2142,0.2141,0.2143,0.2144,0.2145,0.2145,0.2146,0.2147,0.2137,0.2137,0.2137,0,0,0.216,0.2158,0.2159,0.2157,0.2156,0.2156,0.2151,0.2151,0.2152,0.2146,0.2147,0.2145,0.2143,0.2144,0.2144,0.2142,0.2148,0.2145,0.2146,0.2146,0.2147,0.2148,0.2148,0.2137,0.2137,0.2137,0,0,0.2166,0.2164,0.2166,0.2164,0.2162,0.216,0.2161,0.2158,0.2156,0.2157,0.2153,0.2153,0.2152,0.2151,0.215,0.2155,0.2152,0.2155,0.216,0.2161,0.2162,0.2162,0.2164,0.2165,0.2156,0.2156,0.2156,0,0.2169,0.217,0.2166,0.2167,0.2167,0.2162,0.2164,0.2163,0.216,0.216,0.2158,0.2157,0.2155,0.2156,0.2158,0.2157,0.2158,0.2155,0.2162,0.2162,0.2163,0.2165,0.2166,0.2156,0.2156,0.2156,0.2156,0,0.2174,0.2175,0.2176,0.2174,0.2174,0.2175,0.2172,0.2172,0.217,0.2168,0.2169,0.2167,0.2165,0.2165,0.2163,0.2166,0.2165,0.2163,0.2159,0.2164,0.2166,0.2167,0.2157,0.2156,0.2156,0.2156,0,0,0.2182,0.2179,0.218,0.2179,0.2177,0.2177,0.2179,0.2178,0.2178,0.2177,0.2177,0.2177,0.2175,0.2174,0.2171,0.2173,0.2178,0.217,0.217,0.2171,0.2181,0.2183,0.2184,0.2176,0.2176,0.2176,0.2182,0,0.2187,0.2188,0.2186,0.2188,0.2189,0.2185,0.2186,0.2185,0.2183,0.2183,0.2181,0.2181,0.2178,0.2178,0.2179,0.2177,0.2179,0.2176,0.2176,0.2176,0.2177,0.2185,0.2187,0.2192,0.2182,0.2182,0.2182,0,0.2192,0.2192,0.2194,0.2193,0.2193,0.2194,0.2193,0.2193,0.2192,0.2191,0.219,0.2188,0.2189,0.2185,0.2187,0.2184,0.2184,0.2183,0.2184,0.2183,0.2179,0.2185,0.2194,0.2195,0.2183,0.2183,0.2183,0,0.2198,0.2198,0.2199,0.2199,0.2197,0.2198,0.2197,0.2196,0.2196,0.2195,0.2195,0.2195,0.2195,0.2194,0.2192,0.219,0.2193,0.219,0.2192,0.2192,0.2193,0.2193,0.2202,0.2193,0.2193,0.2193,0.2193,0,0.2203,0.2205,0.2202,0.2203,0.2205,0.2202,0.2204,0.2203,0.2202,0.2202,0.2199,0.22,0.2197,0.2197,0.2195,0.2197,0.2196,0.2195,0.2195,0.2196,0.2196,0.2195,0.2195,0.2193,0.2193,0.2193,0.2193,0,0.2209,0.2208,0.2209,0.2208,0.2207,0.2209,0.2207,0.2208,0.2207,0.2208,0.2208,0.2205,0.2206,0.2203,0.2203,0.2202,0.2204,0.2203,0.2204,0.2204,0.2207,0.2206,0.2216,0.2217,0.2207,0.2208,0.2208,0,0.2213,0.2214,0.2213,0.2213,0.2213,0.2213,0.2213,0.2211,0.2211,0.2211,0.2212,0.2212,0.2212,0.2212,0.2211,0.2211,0.2209,0.2213,0.2209,0.221,0.2209,0.2209,0.2209,0.2213,0.2213,0.2213,0.2213,0,0.2219,0.2218,0.2219,0.2219,0.2219,0.2219,0.2219,0.222,0.2217,0.2218,0.2218,0.2218,0.2218,0.2219,0.2218,0.2217,0.2215,0.2215,0.2215,0.2216,0.2217,0.2216,0.2206,0.2214,0.2214,0.2214,0.2214,0.2214,0.2224,0.2225,0.2224,0.2225,0.2225,0.2225,0.2226,0.2225,0.2225,0.2225,0.2224,0.2225,0.2224,0.2224,0.2223,0.2224,0.2222,0.2223,0.2223,0.2223,0.2224,0.2217,0.2224,0.2224,0.2224,0.2224,0.2224,0,0.223,0.2229,0.223,0.223,0.2231,0.2229,0.2229,0.223,0.2231,0.223,0.2231,0.2232,0.2232,0.2231,0.2231,0.2232,0.2231,0.2232,0.2232,0.2232,0.2225,0.2225,0.2233,0.2233,0.2233,0.2233,0.2233,0.2233,0.2233,0.2235,0.2234,0.2236,0.2236,0.2237,0.2237,0.2237,0.2237,0.2238,0.2239,0.2238,0.2237,0.2238,0.2238,0.2238,0.2238,0.2239,0.2239,0.2233,0.2232,0.2231,0.2231,0.224,0.224,0.2245,0.2245,0.2245]},{"header":{"parameterUnit":"m.s-1","parameterCategory":1,"la1":30.2991,"la2":30.254,"lo1":-89.0895,"lo2":-89.0444,"dy":0.0017,"dx":0.0017,"nx":28,"ny":28,"refTime":"2025-08-17T21:00:00:Z","depth":0,"parameterNumber":3,"parameterNumberName":"V-component_of_WINDS"},"data":[0,0,0,0,0,0,0,0,0,0,0,0,0,0,0,0,0,0,0,0,0,0,0,0,0,0,0,0,0,0,0,0,0,0,0,0,0,0,0,0,0,0,0,0,0,0,0,0,0,0,0,0,0,0,0,0,0,0,-2.6391,-2.6391,0,-2.6459,-2.646,-2.6461,-2.6465,-2.6465,-2.6464,-2.6463,-2.6529,-2.6532,-2.6534,0,0,0,0,0,0,0,0,0,0,0,0,0,-2.6261,-2.6264,-2.639,-2.6391,-2.6392,-2.6459,-2.646,-2.6461,-2.6466,-2.6465,-2.6464,-2.6463,-2.6529,-2.6531,-2.6534,0,0,0,0,0,0,0,0,0,0,0,0,0,-2.6322,-2.6264,-2.639,-2.6403,-2.6405,-2.6459,-2.646,-2.6461,-2.6466,-2.6465,-2.6463,-2.6462,-2.6528,-2.6531,-2.6535,-2.658,0,0,-2.6546,-2.6548,0,0,0,0,0,0,0,0,-2.6319,-2.6327,-2.64,-2.6402,-2.6404,-2.6453,-2.6439,-2.6501,-2.6466,-2.6442,-2.6463,-2.6462,-2.6504,-2.651,-2.6525,-2.6583,-2.6586,-2.6546,-2.6549,-2.655,-2.6551,0,0,0,0,0,0,0,-2.6315,-2.6324,-2.6417,-2.6401,-2.6404,-2.6404,-2.6411,-2.645,-2.6479,-2.6444,-2.6445,-2.6453,-2.6505,-2.6522,-2.6527,-2.6587,-2.6546,-2.655,-2.6552,-2.6553,-2.6688,-2.6689,0,0,0,0,0,0,-2.6308,-2.6321,-2.6415,-2.642,-2.6358,-2.6407,-2.6416,-2.6438,-2.6478,-2.6484,-2.6454,-2.6453,-2.6516,-2.6522,-2.6529,-2.6587,-2.655,-2.6554,-2.6556,-2.6686,-2.6688,-2.6689,0,0,0,0,0,0,-2.6306,-2.6317,-2.6413,-2.637,-2.6383,-2.6411,-2.6436,-2.644,-2.6456,-2.6486,-2.649,-2.6466,-2.6515,-2.6524,-2.6568,-2.6589,-2.6555,-2.6559,-2.6685,-2.6687,-2.6689,-2.6701,0,0,0,0,0,0,-2.6302,-2.6316,-2.6334,-2.6371,-2.6385,-2.6451,-2.6437,-2.6442,-2.6463,-2.6463,-2.6498,-2.6503,-2.6515,-2.6563,-2.6572,-2.6593,-2.6562,-2.6683,-2.6686,-2.6688,-2.6699,-2.6703,-2.6707,0,0,0,0,0,-2.6297,-2.6333,-2.6335,-2.6346,-2.6408,-2.6452,-2.646,-2.6475,-2.6465,-2.6483,-2.6502,-2.6502,-2.6585,-2.6567,-2.6577,-2.66,-2.6682,-2.6685,-2.6688,-2.6697,-2.6702,-2.6707,0,0,0,0,0,0,-2.6296,-2.6338,-2.634,-2.6389,-2.6418,-2.6453,-2.6477,-2.648,-2.651,-2.6508,-2.6524,-2.6532,-2.6576,-2.6592,-2.6572,-2.6647,-2.6632,-2.6637,-2.6635,-2.6641,-2.6645,-2.664,-2.6565,0,0,0,0,0,-2.6302,-2.6336,-2.637,-2.641,-2.6424,-2.6448,-2.6468,-2.6477,-2.6506,-2.6518,-2.654,-2.6567,-2.66,-2.6621,-2.6652,-2.6701,-2.6709,-2.6722,-2.6726,-2.6729,-2.6734,-2.6762,-2.6769,-2.6699,-2.6699,-2.6699,0,0,-2.6314,-2.6341,-2.6361,-2.641,-2.6433,-2.6468,-2.6458,-2.6494,-2.6519,-2.6522,-2.6567,-2.6584,-2.6616,-2.6663,-2.6685,-2.6678,-2.6755,-2.6733,-2.6735,-2.6738,-2.6766,-2.6773,-2.6778,-2.6701,-2.6701,-2.6701,0,0,-2.6353,-2.6376,-2.6413,-2.6437,-2.6473,-2.6489,-2.6497,-2.6533,-2.6546,-2.659,-2.6594,-2.6624,-2.6679,-2.6702,-2.6721,-2.6771,-2.6772,-2.6781,-2.6802,-2.683,-2.6835,-2.684,-2.686,-2.6866,-2.6785,-2.6785,-2.6785,0,-2.6363,-2.6416,-2.6431,-2.6469,-2.6491,-2.6497,-2.6535,-2.6556,-2.66,-2.6615,-2.6606,-2.6678,-2.6699,-2.6753,-2.6765,-2.678,-2.6791,-2.6777,-2.6833,-2.6839,-2.6843,-2.6862,-2.6869,-2.6786,-2.6786,-2.6786,-2.6786,0,-2.6427,-2.6463,-2.6489,-2.6533,-2.6558,-2.6594,-2.6616,-2.6639,-2.6646,-2.6663,-2.6709,-2.6735,-2.6773,-2.6786,-2.6792,-2.6841,-2.6836,-2.683,-2.6816,-2.6851,-2.6869,-2.6876,-2.6787,-2.6787,-2.6787,-2.6786,0,0,-2.6467,-2.6521,-2.653,-2.6552,-2.6592,-2.662,-2.6657,-2.6696,-2.6716,-2.6746,-2.6778,-2.6826,-2.6822,-2.6843,-2.6852,-2.6876,-2.6916,-2.6868,-2.6869,-2.6877,-2.6974,-2.6979,-2.6987,-2.6917,-2.6918,-2.6919,-2.6972,0,-2.6512,-2.6581,-2.6597,-2.6656,-2.6691,-2.6698,-2.673,-2.6758,-2.6775,-2.6806,-2.6824,-2.6858,-2.6849,-2.6862,-2.6887,-2.6906,-2.6936,-2.6902,-2.6947,-2.6949,-2.6941,-2.6996,-2.7002,-2.705,-2.6979,-2.698,-2.6981,0,-2.6574,-2.6608,-2.6671,-2.6709,-2.6724,-2.6753,-2.6791,-2.6821,-2.6853,-2.6863,-2.6888,-2.6895,-2.6934,-2.6917,-2.6971,-2.6948,-2.6967,-2.6979,-2.6982,-2.6987,-2.6968,-2.7005,-2.7065,-2.7073,-2.6991,-2.6991,-2.699,0,-2.66,-2.6661,-2.6707,-2.6724,-2.6769,-2.679,-2.6809,-2.684,-2.6863,-2.6895,-2.6911,-2.6946,-2.6966,-2.6994,-2.701,-2.6995,-2.7064,-2.7047,-2.7074,-2.7074,-2.7089,-2.7088,-2.7155,-2.7098,-2.7098,-2.7098,-2.7098,0,-2.665,-2.6688,-2.672,-2.6748,-2.6792,-2.6809,-2.6852,-2.6871,-2.6899,-2.6931,-2.6938,-2.6967,-2.6986,-2.7019,-2.7031,-2.7075,-2.7084,-2.7093,-2.7097,-2.7094,-2.7093,-2.7108,-2.7105,-2.71,-2.71,-2.7099,-2.7099,0,-2.6687,-2.6709,-2.676,-2.6799,-2.6809,-2.684,-2.6873,-2.6901,-2.6918,-2.6958,-2.6969,-2.6995,-2.7034,-2.7053,-2.71,-2.7108,-2.7159,-2.7159,-2.7149,-2.7151,-2.7177,-2.7175,-2.7257,-2.727,-2.7203,-2.7204,-2.7204,0,-2.6718,-2.6748,-2.6791,-2.6814,-2.6835,-2.6871,-2.6895,-2.6914,-2.6938,-2.6978,-2.7001,-2.7041,-2.7073,-2.7134,-2.7157,-2.7194,-2.7196,-2.7222,-2.7201,-2.7198,-2.7199,-2.7197,-2.7201,-2.7226,-2.7227,-2.7227,-2.7228,0,-2.6772,-2.6782,-2.6817,-2.6857,-2.6886,-2.6918,-2.6949,-2.6967,-2.699,-2.7018,-2.7059,-2.7084,-2.7134,-2.7173,-2.7211,-2.723,-2.7233,-2.7234,-2.7243,-2.7241,-2.7235,-2.7241,-2.7161,-2.7232,-2.7232,-2.7231,-2.7231,-2.7231,-2.6808,-2.6836,-2.6872,-2.6911,-2.6937,-2.6966,-2.6995,-2.7017,-2.7052,-2.7095,-2.7103,-2.7147,-2.7179,-2.7231,-2.7251,-2.7285,-2.7279,-2.7291,-2.7295,-2.7298,-2.73,-2.7228,-2.7292,-2.7292,-2.7292,-2.7292,-2.7292,0,-2.6864,-2.6887,-2.6924,-2.6969,-2.7,-2.7001,-2.7036,-2.7062,-2.7101,-2.7131,-2.7164,-2.7212,-2.725,-2.7277,-2.7316,-2.7338,-2.734,-2.7347,-2.7347,-2.7352,-2.7302,-2.7292,-2.7345,-2.7345,-2.7345,-2.7345,-2.7345,-2.7345,-2.6897,-2.6945,-2.696,-2.7021,-2.7044,-2.7088,-2.7109,-2.7136,-2.7161,-2.7214,-2.7247,-2.7264,-2.7294,-2.7335,-2.737,-2.7377,-2.7392,-2.74,-2.7407,-2.736,-2.7355,-2.7349,-2.734,-2.7402,-2.7402,-2.7453,-2.7454,-2.7454]}]]